SCP
-0 -0 -0 -0 -0 -0 -0 0 0 0 0 0 0 0 0 0 0 0 0 0 0 0 0 0 0 0 0 0 0 0 0 0 0 0 0 0 0 0 0 0 0 0 0 0
-0 -0 -0 -0 -0 -0 0 0 0 0 0 0 0 0 0 0 0 0 0 0 0 0 0 0 0 0 0 0 0 0 0 0 0 0 0 0 0 0 0 -0 -0 0 0 0
-0 -0 -0 -0 -0 0 0 0 0 0 0 0 0 0 0 0 0 0 0 0 0 0 0 0 0 0 0 0 0 0 0 0 0 0 0 0 0 0 0 0 0 0 0 0
-0 -0 -0 -0 -0 0 0 0 0 0 0 0 0 0 0 0 0 0 0 0 0 0 0 0 0 0 0 0 0 0 0 0 0 0 0 0 0 0 0 0 0 -0 0 0
0 -0 -0 -0 -0 -0 0 0 0 -0 -0 -0 0 0 0 0 0 0 0 0 0 0 0 0 0 0 0 0 0 0 0 0 0 0 0 0 0 0 0 0 0 0 0 0
0 0 0 -0 -0 -0 0 0 0 0 0 -0 -0 0 0 0 0 0 0 0 0 0 0 0 0 0 0 0 0 0 0 0 0 0 0 0 0 0 0 0 0 0 0 0
0 0 0 0 0 0 0 0 0 0 -0 -0 -0 0 0 0 0 0 0 0 0 0 0 0 0 0 0 0 0 0 0 0 0 0 0 0 0 0 0 0 0 0 0 0
0 0 0 0 0 0 0 0 -0 0 -0 -0 -0 0 0 0 0 0 0 0 0 0 0 0 0 0 0 0 0 0 0 0 0 0 0 0 0 0 0 0 0 0 0 0
0 0 0 0 0 0 0 0 0 0 0 0 0 0 0 0 0 0 0 0 0 0 0 0 0 0 0 0 0 0 0 0 0 0 0 0 0 0 0 0 0 0 0 0
0 0 0 0 0 0 0 0 0 0 0 0 0 0 0 0 0 0 0 0 0 0 0 0 0 0 0 0 0 0 0 0 0 0 0 0 0 0 0 0 0 0 0 0
0 0 0 0 0 0 0 0 0 0 0 0 0 0 0 0 0 0 0 0 0 0 0 0 0 0 0 0 0 0 0 0 0 0 0 0 0 0 0 0 0 0 0 0
0 0 0 0 0 0 0 0 0 0 0 0 0 0 0 0 -0 0 0 0 0 0 1 1 1 1 0 0 0 1 0 0 0 0 0 0 0 0 0 0 0 0 0 0
0 0 0 0 0 0 0 0 0 0 0 0 0 0 0 0 0 -0 0 0 0 0 0 1 1 1 1 0 0 0 0 1 0 0 0 0 0 0 0 0 0 0 0 0
0 0 0 0 0 0 0 0 0 0 0 0 0 0 0 0 0 0 -0 0 0 0 0 0 1 1 1 0 1 1 1 1 0 0 0 0 0 0 0 0 0 0 0 0
0 0 0 0 0 0 0 0 0 0 0 0 0 0 0 0 0 0 0 0 0 0 0 0 0 1 0 0 1 0 1 1 0 0 1 1 1 0 0 -0 0 0 0 0
0 0 0 0 0 0 0 0 0 0 0 0 0 0 0 0 0 0 0 0 0 0 0 0 0 0 0 0 0 0 0 0 0 1 0 1 1 0 0 0 1 0 0 0
0 0 0 0 0 0 0 0 0 0 0 0 0 0 0 0 0 0 0 0 0 0 0 0 0 0 0 0 0 0 0 0 0 0 0 0 0 0 0 0 0 1 1 0
0 0 0 0 0 0 0 0 0 0 0 0 0 0 0 0 0 0 0 0 0 0 0 0 0 0 0 0 0 0 0 0 0 0 0 0 -0 0 0 0 0 1 0 0
0 0 0 0 0 0 0 0 0 0 0 0 0 0 0 0 0 0 0 0 0 0 0 0 0 0 0 0 -0 0 0 0 0 0 -0 -0 -0 0 0 0 0 0 0 0
0 0 0 0 0 0 0 0 0 0 0 0 0 0 0 0 0 0 0 0 0 0 0 0 0 0 0 -0 0 0 0 0 0 -0 -0 -0 0 0 0 0 0 0 0 0
0 0 0 0 0 0 0 0 0 0 0 0 0 0 0 0 0 0 0 0 0 0 0 0 0 0 0 0 0 0 0 0 0 0 0 0 0 0 0 0 0 0 0 0
0 0 0 0 0 0 0 0 0 0 0 0 0 0 0 0 0 0 -0 0 0 0 0 0 0 0 0 0 0 0 0 0 0 0 0 0 0 0 0 0 0 0 0 0
0 0 0 0 0 0 0 0 0 0 0 0 0 0 0 0 0 0 0 0 0 0 0 0 0 0 0 0 0 0 0 0 0 0 0 0 0 0 0 0 0 0 0 0
0 0 0 0 0 0 0 0 0 0 0 0 0 0 0 0 0 0 0 0 0 0 -0 0 0 0 0 0 0 0 0 0 0 0 0 -0 0 0 -0 0 0 0 0 0
0 0 0 0 0 0 0 0 0 0 0 0 -0 0 0 0 0 0 0 0 0 0 0 0 0 0 0 1 0 1 0 0 0 0 0 0 0 0 0 -0 -0 -0 -0 -0
0 0 0 0 -0 -0 0 0 0 0 -0 0 0 -0 0 0 0 0 0 0 0 0 0 0 0 0 1 1 1 1 0 0 0 0 0 0 0 -0 -0 -0 -0 -0 -0 -0
0 0 0 -0 -0 -0 0 0 0 -0 -0 0 0 -0 0 0 0 -0 0 0 0 0 0 0 0 1 2 0 1 1 0 0 0 0 0 0 0 -0 -0 -0 -0 -0 -0 -0
Wind_Speed_500mb
44 45 46 45 44 34 16 3 5 7 22 14 12 19 10 1 6 7 7 11 12 13 10 9 15 18 9 10 26 36 36 22 25 33 22 8 22 39 40 23 29 23 27 17
45 45 45 43 42 36 17 5 5 8 5 8 14 7 17 12 11 10 6 8 8 6 10 7 12 8 1 12 23 23 32 21 23 27 28 21 21 26 23 27 31 24 20 27
43 45 44 43 40 31 15 5 5 8 7 4 15 9 10 13 10 16 13 14 13 18 20 14 8 7 5 11 23 7 17 30 31 26 30 37 41 37 32 38 27 31 30 35
43 44 44 42 41 30 12 9 7 5 5 11 6 9 2 10 11 14 12 12 20 12 12 14 13 12 11 8 8 12 23 31 24 31 21 17 27 37 41 36 35 38 31 28
41 42 42 41 39 28 18 11 10 11 10 9 16 10 13 15 8 9 14 18 4 12 20 20 10 9 8 5 11 12 25 23 24 31 36 32 30 35 31 36 33 30 29 33
38 40 40 39 38 33 14 14 10 8 1 6 10 10 16 12 4 11 14 9 16 20 16 17 24 27 31 24 16 11 9 22 18 30 36 28 35 38 38 34 31 30 32 32
35 37 37 36 34 32 21 16 9 10 8 9 11 8 12 16 12 16 16 22 21 12 29 43 44 43 39 36 30 30 14 14 15 22 18 35 28 31 39 39 33 30 30 8
32 34 34 35 33 28 20 17 7 8 12 12 21 22 21 24 26 29 31 32 27 26 29 16 24 23 23 28 30 29 28 18 13 14 25 29 15 17 26 28 28 31 30 12
29 30 31 31 30 26 18 15 13 6 15 6 9 15 16 19 20 21 32 24 21 17 13 17 23 25 29 21 14 16 26 27 19 14 24 27 26 33 38 28 29 19 23 25
25 27 29 29 29 28 18 11 11 7 14 15 8 8 13 9 13 15 17 13 12 12 16 19 23 28 19 24 27 14 16 15 27 25 19 16 10 11 28 22 16 29 36 43
23 22 24 26 26 28 22 13 11 7 13 35 32 28 28 23 17 14 11 16 18 14 16 20 17 18 20 24 27 14 19 15 15 13 13 25 11 19 26 16 19 21 32 46
23 21 20 23 23 22 22 10 15 15 18 26 38 48 46 47 42 33 17 18 10 9 7 7 12 11 13 24 28 13 19 18 18 14 9 9 14 29 28 18 20 21 39 51
21 20 20 21 21 21 19 15 19 18 21 42 26 12 21 23 37 52 29 21 14 14 9 16 9 14 10 22 26 37 17 6 11 8 28 36 33 33 39 19 20 11 31 52
21 21 21 22 20 21 25 17 17 14 15 12 11 10 14 8 17 26 50 51 26 15 17 25 14 10 2 16 9 11 11 13 14 20 33 34 40 20 25 25 15 18 40 55
22 23 24 24 24 24 26 23 19 18 15 14 32 49 22 14 30 47 48 52 53 50 25 17 18 23 9 16 8 16 17 17 17 15 13 13 17 22 26 20 22 32 53 62
25 24 25 24 25 27 18 7 6 10 11 10 10 16 26 16 17 26 36 43 46 45 22 27 32 31 13 11 18 19 19 24 22 29 30 34 36 37 24 19 24 41 47 39
24 24 24 23 25 24 10 9 6 10 11 6 16 11 8 11 9 6 20 31 34 33 38 37 40 31 16 19 26 24 9 8 19 27 33 32 18 19 12 17 27 39 42 48
27 27 26 27 29 32 30 19 29 23 10 10 8 11 15 9 9 7 14 21 34 32 33 24 28 36 24 17 33 47 48 44 41 40 33 36 25 12 10 23 37 47 54 56
25 26 25 27 8 7 6 8 8 16 13 8 10 8 8 6 2 5 15 22 14 21 18 24 18 23 21 24 40 42 37 36 29 27 21 16 15 17 26 35 43 51 58 63
22 16 5 9 9 10 14 4 7 20 16 17 14 33 19 17 10 4 6 16 14 11 20 24 19 29 54 52 46 39 36 30 29 24 19 17 20 27 35 41 45 52 53 57
5 5 6 5 10 6 10 9 15 17 12 20 22 37 27 33 18 11 10 5 8 10 14 17 13 23 33 57 66 63 55 42 28 17 12 15 20 32 38 38 48 60 59 67
9 14 20 11 10 14 11 8 11 13 10 17 18 17 24 16 20 15 11 8 10 14 26 13 15 20 20 21 31 41 48 51 42 27 21 14 25 33 37 43 51 57 53 63
8 5 7 9 11 10 13 14 10 9 9 6 9 12 8 14 23 14 8 11 14 14 10 9 5 3 18 26 43 47 43 47 52 44 29 20 40 53 56 43 46 56 58 56
8 9 8 10 11 13 15 19 13 12 18 21 24 20 9 11 12 10 11 10 9 9 10 7 6 7 33 50 35 28 45 59 56 51 46 41 45 50 64 50 44 48 54 53
9 10 10 14 23 25 23 19 25 27 28 26 23 17 15 9 12 10 9 7 12 4 4 5 21 28 28 28 19 35 49 53 54 54 53 52 52 59 68 62 61 57 57 52
9 14 12 23 22 23 22 22 24 22 20 24 21 9 8 10 8 11 8 9 3 4 4 8 19 47 27 7 20 36 44 54 51 53 52 52 54 54 55 52 57 54 50 48
10 16 25 31 34 34 33 28 21 12 19 12 10 10 12 5 9 9 4 5 4 19 20 33 38 51 34 2 29 41 48 51 52 57 57 55 60 59 52 53 46 45 42 43
Wind_Direction_500mb
4 2 1 357 356 1 360 45 215 124 143 205 215 231 231 250 228 190 266 285 287 280 296 256 217 211 243 215 222 200 215 214 231 205 205 345 229 215 221 225 209 248 284 286
9 7 4 2 0 5 15 13 59 169 161 241 212 191 239 258 245 238 230 256 239 296 272 276 232 206 266 214 198 211 195 221 219 220 215 209 238 236 247 249 248 244 234 241
7 10 8 6 5 8 26 326 196 158 227 269 287 218 213 220 204 264 256 273 253 265 256 222 267 227 176 188 225 256 209 232 226 222 222 211 212 227 225 241 233 236 237 257
2 6 9 9 8 10 40 360 47 354 189 199 251 250 340 231 239 220 233 232 243 270 262 236 229 233 240 162 162 213 231 230 228 238 262 227 245 215 217 231 243 252 248 239
358 359 5 11 13 13 43 360 348 329 286 270 241 192 222 262 242 257 223 247 123 272 261 287 327 333 273 48 170 180 226 240 243 231 230 232 235 238 221 220 238 248 255 264
358 358 0 5 13 22 42 6 341 314 200 250 260 251 254 268 291 246 275 303 314 269 283 323 299 288 280 275 287 296 215 231 214 232 228 227 236 234 226 227 222 232 234 236
356 357 359 1 10 19 26 11 352 299 281 270 272 306 308 280 266 290 292 293 292 324 312 299 273 252 254 260 254 240 260 231 238 246 195 229 242 220 220 227 231 230 242 159
1 360 360 1 7 10 20 16 29 324 291 319 277 265 273 272 268 264 274 284 291 294 295 273 252 237 230 231 232 223 223 249 241 235 223 240 193 196 211 226 223 221 228 169
357 358 358 356 359 10 21 6 11 339 307 80 334 293 288 287 279 273 262 273 286 282 270 252 239 235 228 207 180 234 227 223 264 220 267 240 242 208 212 212 233 220 209 180
347 351 354 355 355 358 17 346 347 334 285 291 281 272 308 293 279 276 284 310 281 237 254 248 239 239 248 251 206 177 177 212 224 228 252 258 60 134 164 199 216 184 198 181
338 340 345 348 350 348 12 323 330 346 277 279 265 260 258 261 250 268 328 289 210 260 249 252 245 245 237 241 261 190 198 205 195 224 250 255 136 174 207 216 246 242 202 186
330 333 337 339 342 340 351 321 315 310 270 259 277 267 253 248 251 273 255 283 321 311 292 273 304 265 261 254 244 191 247 254 289 305 275 34 223 231 234 335 295 242 201 182
323 324 325 329 331 331 331 308 304 323 292 301 267 260 301 262 246 226 242 252 243 246 295 312 283 258 286 253 240 264 171 177 249 270 259 260 261 264 255 296 302 257 190 174
316 316 317 318 323 325 322 302 293 289 296 281 291 319 268 246 237 222 222 238 268 256 266 255 266 263 254 267 320 278 336 155 230 245 261 272 270 282 294 264 265 183 168 164
310 309 309 311 309 316 321 297 276 251 237 298 294 295 293 283 230 238 239 237 235 239 266 244 247 255 270 225 278 245 224 237 227 267 36 318 323 339 333 251 213 182 167 155
303 303 303 301 302 312 332 280 269 21 193 302 300 304 290 267 244 239 227 228 224 223 230 241 255 249 255 257 249 259 267 256 275 281 308 301 298 299 296 241 195 177 175 175
299 298 298 297 296 296 253 291 238 270 332 277 289 278 248 268 239 217 208 210 210 212 222 230 246 245 206 259 257 248 223 298 304 299 304 298 309 295 292 219 183 170 163 160
299 296 294 293 290 285 281 290 256 245 242 247 270 278 274 204 251 210 187 195 203 213 227 235 233 233 222 251 247 250 259 274 284 289 285 283 286 272 208 181 160 156 149 149
303 300 295 292 250 221 219 256 231 210 225 255 234 270 291 336 225 274 199 194 204 230 219 227 223 221 220 234 241 248 256 264 270 293 282 267 235 203 180 170 158 154 149 148
310 305 265 223 200 225 273 263 193 194 216 230 248 232 248 292 277 264 241 220 230 201 218 216 227 242 237 237 244 248 252 264 258 253 249 236 212 187 179 165 155 149 145 141
332 247 243 259 234 273 222 236 200 190 225 218 245 239 251 246 247 239 234 261 231 230 187 199 216 232 227 236 241 244 244 242 239 242 233 204 194 169 158 154 149 139 141 141
250 263 279 270 222 220 235 219 203 215 244 187 238 239 219 244 217 227 214 241 237 244 144 199 233 229 228 252 249 251 244 230 222 207 184 197 173 163 151 155 143 129 143 149
284 260 239 215 210 242 224 211 210 218 229 243 278 283 252 227 212 232 209 248 236 144 206 218 235 77 306 289 297 272 242 213 206 202 198 165 160 157 148 156 136 143 142 139
239 230 229 231 212 226 226 261 300 303 301 302 309 300 262 244 210 228 233 242 257 227 216 201 131 36 290 297 277 234 195 192 192 185 193 171 165 165 161 140 144 145 142 147
241 230 242 231 252 271 272 273 281 277 291 298 308 285 243 247 243 216 270 246 242 221 164 122 151 228 250 285 226 187 176 169 166 172 168 159 167 163 149 149 151 155 156 159
239 235 258 263 267 277 274 274 277 287 291 298 261 260 284 253 245 205 238 260 359 61 298 227 269 291 321 312 171 161 157 151 150 149 154 153 156 149 142 144 149 153 158 154
231 239 242 263 276 280 282 282 284 290 298 285 274 225 239 295 244 189 214 336 41 332 306 297 310 302 312 225 152 151 149 146 146 143 149 151 151 147 143 141 139 145 148 151
Wind_Speed_850mb
44 45 46 45 44 34 16 3 5 7 22 14 12 19 10 1 6 7 7 11 12 13 10 9 15 18 9 10 26 36 36 22 25 33 22 8 22 39 40 23 29 23 27 17
45 45 45 43 42 36 17 5 5 8 5 8 14 7 17 12 11 10 6 8 8 6 10 7 12 8 1 12 23 23 32 21 23 27 28 21 21 26 23 27 31 24 20 27
43 45 44 43 40 31 15 5 5 8 7 4 15 9 10 13 10 16 13 14 13 18 20 14 8 7 5 11 23 7 17 30 31 26 30 37 41 37 32 38 27 31 30 35
43 44 44 42 41 30 12 9 7 5 5 11 6 9 2 10 11 14 12 12 20 12 12 14 13 12 11 8 8 12 23 31 24 31 21 17 27 37 41 36 35 38 31 28
41 42 42 41 39 28 18 11 10 11 10 9 16 10 13 15 8 9 14 18 4 12 20 20 10 9 8 5 11 12 25 23 24 31 36 32 30 35 31 36 33 30 29 33
38 40 40 39 38 33 14 14 10 8 1 6 10 10 16 12 4 11 14 9 16 20 16 17 24 27 31 24 16 11 9 22 18 30 36 28 35 38 38 34 31 30 32 32
35 37 37 36 34 32 21 16 9 10 8 9 11 8 12 16 12 16 16 22 21 12 29 43 44 43 39 36 30 30 14 14 15 22 18 35 28 31 39 39 33 30 30 8
32 34 34 35 33 28 20 17 7 8 12 12 21 22 21 24 26 29 31 32 27 26 29 16 24 23 23 28 30 29 28 18 13 14 25 29 15 17 26 28 28 31 30 12
29 30 31 31 30 26 18 15 13 6 15 6 9 15 16 19 20 21 32 24 21 17 13 17 23 25 29 21 14 16 26 27 19 14 24 27 26 33 38 28 29 19 23 25
25 27 29 29 29 28 18 11 11 7 14 15 8 8 13 9 13 15 17 13 12 12 16 19 23 28 19 24 27 14 16 15 27 25 19 16 10 11 28 22 16 29 36 43
23 22 24 26 26 28 22 13 11 7 13 35 32 28 28 23 17 14 11 16 18 14 16 20 17 18 20 24 27 14 19 15 15 13 13 25 11 19 26 16 19 21 32 46
23 21 20 23 23 22 22 10 15 15 18 26 38 48 46 47 42 33 17 18 10 9 7 7 12 11 13 24 28 13 19 18 18 14 9 9 14 29 28 18 20 21 39 51
21 20 20 21 21 21 19 15 19 18 21 42 26 12 21 23 37 52 29 21 14 14 9 16 9 14 10 22 26 37 17 6 11 8 28 36 33 33 39 19 20 11 31 52
21 21 21 22 20 21 25 17 17 14 15 12 11 10 14 8 17 26 50 51 26 15 17 25 14 10 2 16 9 11 11 13 14 20 33 34 40 20 25 25 15 18 40 55
22 23 24 24 24 24 26 23 19 18 15 14 32 49 22 14 30 47 48 52 53 50 25 17 18 23 9 16 8 16 17 17 17 15 13 13 17 22 26 20 22 32 53 62
25 24 25 24 25 27 18 7 6 10 11 10 10 16 26 16 17 26 36 43 46 45 22 27 32 31 13 11 18 19 19 24 22 29 30 34 36 37 24 19 24 41 47 39
24 24 24 23 25 24 10 9 6 10 11 6 16 11 8 11 9 6 20 31 34 33 38 37 40 31 16 19 26 24 9 8 19 27 33 32 18 19 12 17 27 39 42 48
27 27 26 27 29 32 30 19 29 23 10 10 8 11 15 9 9 7 14 21 34 32 33 24 28 36 24 17 33 47 48 44 41 40 33 36 25 12 10 23 37 47 54 56
25 26 25 27 8 7 6 8 8 16 13 8 10 8 8 6 2 5 15 22 14 21 18 24 18 23 21 24 40 42 37 36 29 27 21 16 15 17 26 35 43 51 58 63
22 16 5 9 9 10 14 4 7 20 16 17 14 33 19 17 10 4 6 16 14 11 20 24 19 29 54 52 46 39 36 30 29 24 19 17 20 27 35 41 45 52 53 57
5 5 6 5 10 6 10 9 15 17 12 20 22 37 27 33 18 11 10 5 8 10 14 17 13 23 33 57 66 63 55 42 28 17 12 15 20 32 38 38 48 60 59 67
9 14 20 11 10 14 11 8 11 13 10 17 18 17 24 16 20 15 11 8 10 14 26 13 15 20 20 21 31 41 48 51 42 27 21 14 25 33 37 43 51 57 53 63
8 5 7 9 11 10 13 14 10 9 9 6 9 12 8 14 23 14 8 11 14 14 10 9 5 3 18 26 43 47 43 47 52 44 29 20 40 53 56 43 46 56 58 56
8 9 8 10 11 13 15 19 13 12 18 21 24 20 9 11 12 10 11 10 9 9 10 7 6 7 33 50 35 28 45 59 56 51 46 41 45 50 64 50 44 48 54 53
9 10 10 14 23 25 23 19 25 27 28 26 23 17 15 9 12 10 9 7 12 4 4 5 21 28 28 28 19 35 49 53 54 54 53 52 52 59 68 62 61 57 57 52
9 14 12 23 22 23 22 22 24 22 20 24 21 9 8 10 8 11 8 9 3 4 4 8 19 47 27 7 20 36 44 54 51 53 52 52 54 54 55 52 57 54 50 48
10 16 25 31 34 34 33 28 21 12 19 12 10 10 12 5 9 9 4 5 4 19 20 33 38 51 34 2 29 41 48 51 52 57 57 55 60 59 52 53 46 45 42 43
Wind_Direction_850mb
4 2 1 357 356 1 360 45 215 124 143 205 215 231 231 250 228 190 266 285 287 280 296 256 217 211 243 215 222 200 215 214 231 205 205 345 229 215 221 225 209 248 284 286
9 7 4 2 0 5 15 13 59 169 161 241 212 191 239 258 245 238 230 256 239 296 272 276 232 206 266 214 198 211 195 221 219 220 215 209 238 236 247 249 248 244 234 241
7 10 8 6 5 8 26 326 196 158 227 269 287 218 213 220 204 264 256 273 253 265 256 222 267 227 176 188 225 256 209 232 226 222 222 211 212 227 225 241 233 236 237 257
2 6 9 9 8 10 40 360 47 354 189 199 251 250 340 231 239 220 233 232 243 270 262 236 229 233 240 162 162 213 231 230 228 238 262 227 245 215 217 231 243 252 248 239
358 359 5 11 13 13 43 360 348 329 286 270 241 192 222 262 242 257 223 247 123 272 261 287 327 333 273 48 170 180 226 240 243 231 230 232 235 238 221 220 238 248 255 264
358 358 0 5 13 22 42 6 341 314 200 250 260 251 254 268 291 246 275 303 314 269 283 323 299 288 280 275 287 296 215 231 214 232 228 227 236 234 226 227 222 232 234 236
356 357 359 1 10 19 26 11 352 299 281 270 272 306 308 280 266 290 292 293 292 324 312 299 273 252 254 260 254 240 260 231 238 246 195 229 242 220 220 227 231 230 242 159
1 360 360 1 7 10 20 16 29 324 291 319 277 265 273 272 268 264 274 284 291 294 295 273 252 237 230 231 232 223 223 249 241 235 223 240 193 196 211 226 223 221 228 169
357 358 358 356 359 10 21 6 11 339 307 80 334 293 288 287 279 273 262 273 286 282 270 252 239 235 228 207 180 234 227 223 264 220 267 240 242 208 212 212 233 220 209 180
347 351 354 355 355 358 17 346 347 334 285 291 281 272 308 293 279 276 284 310 281 237 254 248 239 239 248 251 206 177 177 212 224 228 252 258 60 134 164 199 216 184 198 181
338 340 345 348 350 348 12 323 330 346 277 279 265 260 258 261 250 268 328 289 210 260 249 252 245 245 237 241 261 190 198 205 195 224 250 255 136 174 207 216 246 242 202 186
330 333 337 339 342 340 351 321 315 310 270 259 277 267 253 248 251 273 255 283 321 311 292 273 304 265 261 254 244 191 247 254 289 305 275 34 223 231 234 335 295 242 201 182
323 324 325 329 331 331 331 308 304 323 292 301 267 260 301 262 246 226 242 252 243 246 295 312 283 258 286 253 240 264 171 177 249 270 259 260 261 264 255 296 302 257 190 174
316 316 317 318 323 325 322 302 293 289 296 281 291 319 268 246 237 222 222 238 268 256 266 255 266 263 254 267 320 278 336 155 230 245 261 272 270 282 294 264 265 183 168 164
310 309 309 311 309 316 321 297 276 251 237 298 294 295 293 283 230 238 239 237 235 239 266 244 247 255 270 225 278 245 224 237 227 267 36 318 323 339 333 251 213 182 167 155
303 303 303 301 302 312 332 280 269 21 193 302 300 304 290 267 244 239 227 228 224 223 230 241 255 249 255 257 249 259 267 256 275 281 308 301 298 299 296 241 195 177 175 175
299 298 298 297 296 296 253 291 238 270 332 277 289 278 248 268 239 217 208 210 210 212 222 230 246 245 206 259 257 248 223 298 304 299 304 298 309 295 292 219 183 170 163 160
299 296 294 293 290 285 281 290 256 245 242 247 270 278 274 204 251 210 187 195 203 213 227 235 233 233 222 251 247 250 259 274 284 289 285 283 286 272 208 181 160 156 149 149
303 300 295 292 250 221 219 256 231 210 225 255 234 270 291 336 225 274 199 194 204 230 219 227 223 221 220 234 241 248 256 264 270 293 282 267 235 203 180 170 158 154 149 148
310 305 265 223 200 225 273 263 193 194 216 230 248 232 248 292 277 264 241 220 230 201 218 216 227 242 237 237 244 248 252 264 258 253 249 236 212 187 179 165 155 149 145 141
332 247 243 259 234 273 222 236 200 190 225 218 245 239 251 246 247 239 234 261 231 230 187 199 216 232 227 236 241 244 244 242 239 242 233 204 194 169 158 154 149 139 141 141
250 263 279 270 222 220 235 219 203 215 244 187 238 239 219 244 217 227 214 241 237 244 144 199 233 229 228 252 249 251 244 230 222 207 184 197 173 163 151 155 143 129 143 149
284 260 239 215 210 242 224 211 210 218 229 243 278 283 252 227 212 232 209 248 236 144 206 218 235 77 306 289 297 272 242 213 206 202 198 165 160 157 148 156 136 143 142 139
239 230 229 231 212 226 226 261 300 303 301 302 309 300 262 244 210 228 233 242 257 227 216 201 131 36 290 297 277 234 195 192 192 185 193 171 165 165 161 140 144 145 142 147
241 230 242 231 252 271 272 273 281 277 291 298 308 285 243 247 243 216 270 246 242 221 164 122 151 228 250 285 226 187 176 169 166 172 168 159 167 163 149 149 151 155 156 159
239 235 258 263 267 277 274 274 277 287 291 298 261 260 284 253 245 205 238 260 359 61 298 227 269 291 321 312 171 161 157 151 150 149 154 153 156 149 142 144 149 153 158 154
231 239 242 263 276 280 282 282 284 290 298 285 274 225 239 295 244 189 214 336 41 332 306 297 310 302 312 225 152 151 149 146 146 143 149 151 151 147 143 141 139 145 148 151